| time (UTC) | temp F | wind direction | speed MPH | gust MPH | rain 1hr in | rain 24hr in | rain mn in | humidity % | barometer mb |
| 20260509221813 | 90 | 161 | 3.0 | 5.0 | 0.00 | 0.01 | 0.01 | 42 | 1006.4 |
| 20260509221312 | 90 | 136 | 5.0 | 8.0 | 0.00 | 0.01 | 0.01 | 43 | 1006.4 |
| 20260509220812 | 90 | 83 | 3.0 | 6.0 | 0.00 | 0.01 | 0.01 | 43 | 1006.6 |
| 20260509214812 | 90 | 98 | 1.0 | 8.0 | 0.00 | 0.01 | 0.01 | 46 | 1006.6 |
| 20260509214312 | 90 | 108 | 5.0 | 7.0 | 0.00 | 0.01 | 0.01 | 46 | 1006.6 |
| 20260509213812 | 90 | 130 | 4.0 | 8.0 | 0.00 | 0.01 | 0.01 | 48 | 1006.6 |
| 20260509213312 | 90 | 99 | 5.0 | 9.0 | 0.00 | 0.01 | 0.01 | 46 | 1006.7 |
| 20260509212312 | 90 | 135 | 3.0 | 8.0 | 0.00 | 0.01 | 0.01 | 48 | 1006.7 |
| 20260509211812 | 90 | 214 | 1.0 | 7.0 | 0.00 | 0.01 | 0.01 | 48 | 1006.8 |
| 20260509211312 | 89 | 146 | 2.0 | 5.0 | 0.00 | 0.01 | 0.01 | 51 | 1006.8 |
| 20260509210312 | 89 | 125 | 6.0 | 9.0 | 0.00 | 0.01 | 0.01 | 48 | 1007.0 |
| 20260509205812 | 89 | 254 | 3.0 | 6.0 | 0.00 | 0.01 | 0.01 | 48 | 1007.0 |
| 20260509205312 | 89 | 123 | 5.0 | 10.0 | 0.00 | 0.01 | 0.01 | 47 | 1007.1 |
| 20260509204813 | 89 | 102 | 7.0 | 8.0 | 0.00 | 0.01 | 0.01 | 49 | 1007.2 |
| 20260509203812 | 90 | 87 | 6.0 | 10.0 | 0.00 | 0.01 | 0.01 | 46 | 1007.4 |
| 20260509203313 | 90 | 147 | 2.0 | 8.0 | 0.00 | 0.01 | 0.01 | 49 | 1007.4 |
| 20260509202812 | 89 | 182 | 2.0 | 8.0 | 0.00 | 0.01 | 0.01 | 48 | 1007.5 |
| 20260509202313 | 89 | 313 | 1.0 | 3.0 | 0.00 | 0.01 | 0.01 | 50 | 1007.5 |
| 20260509201812 | 89 | 113 | 3.0 | 5.0 | 0.00 | 0.01 | 0.01 | 48 | 1007.5 |
| 20260509201312 | 89 | 266 | 1.0 | 8.0 | 0.00 | 0.01 | 0.01 | 49 | 1007.7 |
| 20260509195813 | 89 | 138 | 4.0 | 6.0 | 0.00 | 0.01 | 0.01 | 53 | 1007.8 |
| 20260509195312 | 89 | 157 | 7.0 | 8.0 | 0.00 | 0.01 | 0.01 | 52 | 1007.9 |
| 20260509194812 | 89 | 138 | 3.0 | 7.0 | 0.00 | 0.01 | 0.01 | 55 | 1008.0 |
| 20260509194312 | 88 | 176 | 2.0 | 7.0 | 0.00 | 0.01 | 0.01 | 52 | 1008.0 |
| 20260509193812 | 88 | 196 | 2.0 | 3.0 | 0.00 | 0.01 | 0.01 | 52 | 1008.1 |
| 20260509193312 | 87 | 220 | 1.0 | 3.0 | 0.00 | 0.01 | 0.01 | 52 | 1008.1 |
| 20260509192812 | 87 | 265 | 3.0 | 5.0 | 0.00 | 0.01 | 0.01 | 50 | 1008.2 |
| 20260509192312 | 87 | 248 | 5.0 | 8.0 | 0.00 | 0.01 | 0.01 | 50 | 1008.2 |
| 20260509191812 | 87 | 120 | 5.0 | 7.0 | 0.00 | 0.01 | 0.01 | 52 | 1008.2 |
| 20260509190812 | 86 | 15 | 1.0 | 3.0 | 0.00 | 0.01 | 0.01 | 50 | 1008.3 |
| 20260509190312 | 85 | 13 | 2.0 | 3.0 | 0.00 | 0.01 | 0.01 | 50 | 1008.4 |
| 20260509185813 | 85 | 283 | 6.0 | 7.0 | 0.00 | 0.01 | 0.01 | 50 | 1008.5 |
| 20260509185312 | 85 | 245 | 2.0 | 8.0 | 0.00 | 0.01 | 0.01 | 51 | 1008.5 |
| 20260509184312 | 85 | 337 | 2.0 | 8.0 | 0.00 | 0.01 | 0.01 | 53 | 1008.7 |
| 20260509183812 | 85 | 298 | 5.0 | 8.0 | 0.00 | 0.01 | 0.01 | 53 | 1008.7 |
| 20260509182812 | 84 | 243 | 4.0 | 8.0 | 0.00 | 0.01 | 0.01 | 56 | 1008.8 |
| 20260509182312 | 84 | 315 | 3.0 | 7.0 | 0.00 | 0.01 | 0.01 | 56 | 1008.9 |
| 20260509181312 | 84 | 341 | 4.0 | 5.0 | 0.00 | 0.01 | 0.01 | 56 | 1009.1 |
| 20260509180812 | 83 | 275 | 5.0 | 8.0 | 0.00 | 0.01 | 0.01 | 56 | 1009.1 |
| 20260509180312 | 83 | 316 | 5.0 | 8.0 | 0.00 | 0.01 | 0.01 | 57 | 1009.1 |
| 20260509175312 | 83 | 315 | 3.0 | 6.0 | 0.00 | 0.01 | 0.01 | 57 | 1009.2 |
| 20260509174812 | 83 | 314 | 3.0 | 6.0 | 0.00 | 0.01 | 0.01 | 58 | 1009.3 |
| 20260509173811 | 83 | 315 | 6.0 | 9.0 | 0.00 | 0.01 | 0.01 | 58 | 1009.3 |
| 20260509173312 | 82 | 326 | 5.0 | 6.0 | 0.00 | 0.01 | 0.01 | 59 | 1009.3 |
| 20260509172812 | 82 | 330 | 4.0 | 7.0 | 0.00 | 0.01 | 0.01 | 58 | 1009.4 |
| 20260509172313 | 82 | 293 | 3.0 | 9.0 | 0.00 | 0.01 | 0.01 | 59 | 1009.4 |
| 20260509171812 | 82 | 277 | 8.0 | 10.0 | 0.00 | 0.01 | 0.01 | 60 | 1009.4 |
| 20260509171311 | 81 | 284 | 4.0 | 8.0 | 0.00 | 0.01 | 0.01 | 61 | 1009.5 |
| 20260509165812 | 81 | 341 | 3.0 | 5.0 | 0.00 | 0.01 | 0.01 | 59 | 1009.6 |
| 20260509165312 | 81 | 315 | 3.0 | 5.0 | 0.00 | 0.01 | 0.01 | 58 | 1009.6 |
| 20260509164812 | 81 | 329 | 3.0 | 8.0 | 0.00 | 0.01 | 0.01 | 61 | 1009.7 |
| 20260509163812 | 80 | 322 | 5.0 | 10.0 | 0.00 | 0.01 | 0.01 | 61 | 1009.8 |
| 20260509163312 | 80 | 302 | 5.0 | 9.0 | 0.00 | 0.01 | 0.01 | 61 | 1009.8 |
| 20260509161812 | 79 | 257 | 5.0 | 9.0 | 0.00 | 0.01 | 0.01 | 62 | 1010.1 |
| 20260509161311 | 79 | 313 | 4.0 | 7.0 | 0.00 | 0.01 | 0.01 | 63 | 1010.0 |
| 20260509160811 | 78 | 304 | 4.0 | 6.0 | 0.00 | 0.01 | 0.01 | 64 | 1010.1 |
| 20260509160312 | 78 | 308 | 5.0 | 9.0 | 0.00 | 0.01 | 0.01 | 66 | 1010.0 |
| 20260509155812 | 78 | 260 | 5.0 | 8.0 | 0.00 | 0.01 | 0.01 | 65 | 1009.9 |
| 20260509154811 | 77 | 295 | 5.0 | 6.0 | 0.00 | 0.01 | 0.01 | 68 | 1009.7 |
| 20260509153812 | 76 | 303 | 8.0 | 10.0 | 0.00 | 0.01 | 0.01 | 68 | 1009.7 |
| 20260509153312 | 76 | 286 | 5.0 | 9.0 | 0.00 | 0.01 | 0.01 | 70 | 1009.7 |
| 20260509152811 | 76 | 306 | 7.0 | 12.0 | 0.00 | 0.01 | 0.01 | 70 | 1009.6 |
| 20260509152312 | 76 | 297 | 9.0 | 10.0 | 0.00 | 0.01 | 0.01 | 72 | 1009.8 |
| 20260509151812 | 76 | 304 | 6.0 | 8.0 | 0.00 | 0.01 | 0.01 | 72 | 1009.7 |
| 20260509150811 | 75 | 306 | 8.0 | 9.0 | 0.00 | 0.01 | 0.01 | 72 | 1009.8 |
| 20260509150312 | 74 | 276 | 7.0 | 10.0 | 0.00 | 0.01 | 0.01 | 77 | 1009.9 |
| 20260509145311 | 74 | 311 | 10.0 | 10.0 | 0.00 | 0.01 | 0.01 | 79 | 1009.8 |
| 20260509144812 | 73 | 285 | 7.0 | 10.0 | 0.00 | 0.01 | 0.01 | 78 | 1009.8 |
| 20260509144312 | 73 | 298 | 11.0 | 10.0 | 0.00 | 0.01 | 0.01 | 78 | 1009.8 |
| 20260509143812 | 73 | 281 | 10.0 | 10.0 | 0.00 | 0.01 | 0.01 | 78 | 1009.8 |
| 20260509143312 | 73 | 285 | 6.0 | 10.0 | 0.00 | 0.01 | 0.01 | 80 | 1009.8 |
| 20260509142811 | 73 | 282 | 7.0 | 8.0 | 0.00 | 0.01 | 0.01 | 80 | 1009.8 |
| 20260509141811 | 72 | 299 | 3.0 | 5.0 | 0.00 | 0.01 | 0.01 | 79 | 1009.9 |
| 20260509141312 | 72 | 319 | 3.0 | 8.0 | 0.00 | 0.01 | 0.01 | 81 | 1010.0 |
| 20260509140812 | 71 | 319 | 1.0 | 2.0 | 0.00 | 0.01 | 0.01 | 81 | 1010.0 |
| 20260509140311 | 70 | 329 | 4.0 | 5.0 | 0.00 | 0.01 | 0.01 | 81 | 1010.1 |
| 20260509135812 | 70 | 330 | 3.0 | 5.0 | 0.00 | 0.01 | 0.01 | 82 | 1010.2 |
| 20260509135312 | 69 | 296 | 5.0 | 7.0 | 0.00 | 0.01 | 0.01 | 82 | 1010.2 |
| 20260509134312 | 69 | 306 | 6.0 | 9.0 | 0.00 | 0.01 | 0.01 | 82 | 1010.2 |
| 20260509133812 | 68 | 296 | 10.0 | 10.0 | 0.00 | 0.01 | 0.01 | 81 | 1010.2 |
| 20260509133311 | 68 | 307 | 9.0 | 10.0 | 0.00 | 0.01 | 0.01 | 82 | 1010.2 |
| 20260509132812 | 68 | 306 | 6.0 | 8.0 | 0.00 | 0.01 | 0.01 | 82 | 1010.2 |
| 20260509131812 | 68 | 292 | 6.0 | 9.0 | 0.00 | 0.01 | 0.01 | 81 | 1010.2 |
| 20260509131311 | 67 | 294 | 5.0 | 8.0 | 0.00 | 0.01 | 0.01 | 82 | 1010.1 |
| 20260509130812 | 67 | 324 | 5.0 | 7.0 | 0.00 | 0.01 | 0.01 | 81 | 1010.2 |
| 20260509130312 | 67 | 289 | 4.0 | 7.0 | 0.00 | 0.01 | 0.01 | 82 | 1010.2 |
| 20260509125812 | 67 | 313 | 4.0 | 6.0 | 0.00 | 0.01 | 0.01 | 82 | 1010.2 |
| 20260509125312 | 67 | 331 | 2.0 | 5.0 | 0.00 | 0.01 | 0.01 | 84 | 1010.1 |
| 20260509124312 | 66 | 294 | 5.0 | 7.0 | 0.00 | 0.01 | 0.01 | 84 | 1010.1 |
| 20260509123812 | 66 | 290 | 2.0 | 5.0 | 0.00 | 0.01 | 0.01 | 84 | 1010.0 |
| 20260509123312 | 65 | 281 | 3.0 | 3.0 | 0.00 | 0.01 | 0.01 | 84 | 1010.0 |
| 20260509122811 | 65 | 287 | 1.0 | 2.0 | 0.00 | 0.01 | 0.01 | 84 | 1010.0 |
| 20260509122313 | 65 | 287 | 0.0 | 1.0 | 0.00 | 0.01 | 0.01 | 84 | 1010.0 |
| 20260509121812 | 65 | 287 | 0.0 | 1.0 | 0.00 | 0.01 | 0.01 | 83 | 1010.0 |
| 20260509121312 | 66 | 287 | 1.0 | 2.0 | 0.00 | 0.01 | 0.01 | 83 | 1009.9 |
| 20260509120811 | 66 | 334 | 0.0 | 1.0 | 0.00 | 0.01 | 0.01 | 82 | 1009.7 |
| 20260509120311 | 66 | 334 | 1.0 | 2.0 | 0.00 | 0.01 | 0.01 | 82 | 1009.7 |
| 20260509115811 | 66 | 334 | 1.0 | 1.0 | 0.00 | 0.01 | 0.01 | 81 | 1009.8 |
| 20260509115312 | 67 | 334 | 0.0 | 1.0 | 0.00 | 0.01 | 0.01 | 80 | 1009.6 |
| 20260509114813 | 67 | 334 | 0.0 | 0.0 | 0.00 | 0.01 | 0.01 | 80 | 1009.5 |
| 20260509114312 | 67 | 334 | 0.0 | 0.0 | 0.00 | 0.01 | 0.01 | 80 | 1009.4 |
| 20260509113812 | 67 | 334 | 0.0 | 2.0 | 0.00 | 0.01 | 0.01 | 80 | 1009.2 |
| 20260509112811 | 67 | 334 | 2.0 | 3.0 | 0.00 | 0.01 | 0.01 | 79 | 1008.8 |
| 20260509111812 | 67 | 350 | 0.0 | 3.0 | 0.00 | 0.01 | 0.01 | 77 | 1008.6 |
| 20260509111312 | 68 | 339 | 1.0 | 1.0 | 0.00 | 0.01 | 0.01 | 77 | 1008.4 |
| 20260509110811 | 68 | 322 | 1.0 | 1.0 | 0.00 | 0.01 | 0.01 | 76 | 1008.4 |
| 20260509110311 | 68 | 355 | 0.0 | 1.0 | 0.00 | 0.01 | 0.01 | 74 | 1008.2 |
| 20260509105811 | 68 | 309 | 1.0 | 2.0 | 0.00 | 0.01 | 0.01 | 74 | 1008.3 |
| 20260509105312 | 69 | 342 | 2.0 | 5.0 | 0.00 | 0.01 | 0.01 | 73 | 1008.3 |
| 20260509104312 | 69 | 345 | 5.0 | 6.0 | 0.00 | 0.01 | 0.01 | 72 | 1008.4 |
| 20260509103311 | 69 | 17 | 5.0 | 9.0 | 0.00 | 0.01 | 0.01 | 73 | 1008.7 |
| 20260509102811 | 69 | 349 | 4.0 | 7.0 | 0.00 | 0.01 | 0.01 | 74 | 1008.7 |
| 20260509101811 | 68 | 331 | 5.0 | 9.0 | 0.00 | 0.01 | 0.01 | 76 | 1008.8 |
| 20260509101312 | 68 | 315 | 6.0 | 9.0 | 0.00 | 0.01 | 0.01 | 76 | 1008.9 |
| 20260509100811 | 68 | 340 | 3.0 | 6.0 | 0.00 | 0.01 | 0.01 | 77 | 1008.9 |
| 20260509095812 | 68 | 314 | 6.0 | 9.0 | 0.00 | 0.01 | 0.01 | 78 | 1009.0 |
| 20260509095311 | 69 | 297 | 14.0 | 15.0 | 0.00 | 0.01 | 0.01 | 76 | 1008.9 |
| 20260509094811 | 68 | 290 | 10.0 | 15.0 | 0.00 | 0.01 | 0.01 | 76 | 1008.8 |
| 20260509094312 | 69 | 267 | 14.0 | 16.0 | 0.00 | 0.01 | 0.01 | 71 | 1008.9 |
| 20260509093812 | 70 | 297 | 9.0 | 13.0 | 0.00 | 0.01 | 0.01 | 67 | 1008.4 |
| 20260509093312 | 70 | 309 | 5.0 | 10.0 | 0.00 | 0.01 | 0.01 | 70 | 1008.3 |
| 20260509092311 | 70 | 262 | 12.0 | 17.0 | 0.00 | 0.01 | 0.01 | 71 | 1007.8 |
| 20260509091812 | 68 | 308 | 7.0 | 22.0 | 0.00 | 0.01 | 0.01 | 76 | 1007.0 |
| 20260509091311 | 67 | 317 | 22.0 | 24.0 | 0.00 | 0.01 | 0.01 | 77 | 1007.4 |
| 20260509090811 | 67 | 204 | 5.0 | 9.0 | 0.00 | 0.01 | 0.01 | 78 | 1004.7 |
| 20260509085811 | 66 | 127 | 6.0 | 12.0 | 0.00 | 0.01 | 0.01 | 75 | 1004.8 |
| 20260509084811 | 66 | 122 | 4.0 | 7.0 | 0.00 | 0.01 | 0.01 | 76 | 1005.5 |
| 20260509084311 | 66 | 119 | 5.0 | 8.0 | 0.00 | 0.01 | 0.01 | 76 | 1005.8 |
| 20260509083812 | 66 | 133 | 3.0 | 8.0 | 0.00 | 0.01 | 0.01 | 78 | 1006.1 |
| 20260509083312 | 65 | 112 | 2.0 | 5.0 | 0.00 | 0.01 | 0.01 | 78 | 1006.4 |
| 20260509082811 | 65 | 155 | 2.0 | 6.0 | 0.00 | 0.01 | 0.01 | 81 | 1006.8 |
| 20260509081811 | 65 | 161 | 3.0 | 6.0 | 0.00 | 0.01 | 0.01 | 80 | 1006.9 |
| 20260509081311 | 66 | 149 | 1.0 | 1.0 | 0.00 | 0.01 | 0.01 | 80 | 1007.1 |
| 20260509080311 | 66 | 177 | 0.0 | 1.0 | 0.01 | 0.01 | 0.01 | 81 | 1007.4 |
| 20260509075811 | 66 | 177 | 1.0 | 1.0 | 0.01 | 0.01 | 0.01 | 82 | 1007.5 |
| 20260509075311 | 66 | 135 | 3.0 | 6.0 | 0.01 | 0.01 | 0.01 | 80 | 1007.5 |
| 20260509074812 | 66 | 155 | 5.0 | 9.0 | 0.01 | 0.01 | 0.01 | 80 | 1007.5 |
| 20260509074312 | 67 | 155 | 3.0 | 7.0 | 0.01 | 0.01 | 0.01 | 81 | 1007.4 |
| 20260509073811 | 67 | 165 | 3.0 | 6.0 | 0.01 | 0.01 | 0.01 | 81 | 1007.3 |
| 20260509073312 | 67 | 100 | 2.0 | 3.0 | 0.01 | 0.01 | 0.01 | 81 | 1007.6 |
| 20260509072311 | 68 | 152 | 1.0 | 2.0 | 0.01 | 0.01 | 0.01 | 79 | 1008.1 |
| 20260509071811 | 68 | 306 | 1.0 | 2.0 | 0.01 | 0.01 | 0.01 | 78 | 1008.7 |
| 20260509071311 | 69 | 306 | 1.0 | 1.0 | 0.01 | 0.01 | 0.01 | 76 | 1009.1 |
| 20260509070811 | 69 | 316 | 2.0 | 3.0 | 0.01 | 0.01 | 0.01 | 76 | 1009.6 |
| 20260509070311 | 70 | 312 | 4.0 | 9.0 | 0.00 | 0.00 | 0.00 | 75 | 1009.9 |
| 20260509065311 | 70 | 277 | 6.0 | 9.0 | 0.00 | 0.00 | 0.00 | 82 | 1010.8 |
| 20260509064811 | 70 | 293 | 7.0 | 9.0 | 0.00 | 0.00 | 0.00 | 83 | 1011.3 |
| 20260509064311 | 70 | 315 | 6.0 | 15.0 | 0.00 | 0.00 | 0.00 | 87 | 1011.2 |
| 20260509063811 | 69 | 297 | 6.0 | 12.0 | 0.00 | 0.00 | 0.00 | 89 | 1011.6 |
| 20260509063312 | 69 | 277 | 9.0 | 13.0 | 0.00 | 0.00 | 0.00 | 91 | 1011.7 |
| 20260509062812 | 69 | 291 | 7.0 | 10.0 | 0.00 | 0.00 | 0.00 | 91 | 1011.7 |
| 20260509062311 | 69 | 326 | 4.0 | 6.0 | 0.00 | 0.00 | 0.00 | 90 | 1011.3 |
| 20260509061811 | 69 | 321 | 3.0 | 8.0 | 0.00 | 0.00 | 0.00 | 90 | 1011.2 |
| 20260509061312 | 69 | 303 | 5.0 | 8.0 | 0.00 | 0.00 | 0.00 | 90 | 1011.2 |
| 20260509060812 | 68 | 314 | 3.0 | 5.0 | 0.00 | 0.00 | 0.00 | 91 | 1011.2 |
| 20260509060311 | 68 | 329 | 3.0 | 5.0 | 0.00 | 0.00 | 0.00 | 91 | 1011.0 |
| 20260509055811 | 68 | 329 | 2.0 | 2.0 | 0.00 | 0.00 | 0.00 | 90 | 1010.9 |
| 20260509055311 | 68 | 16 | 1.0 | 2.0 | 0.00 | 0.00 | 0.00 | 90 | 1010.5 |
| 20260509054811 | 68 | 31 | 3.0 | 3.0 | 0.00 | 0.00 | 0.00 | 90 | 1010.6 |
| 20260509054311 | 68 | 356 | 2.0 | 3.0 | 0.00 | 0.00 | 0.00 | 90 | 1010.8 |
| 20260509053811 | 68 | 358 | 1.0 | 3.0 | 0.00 | 0.00 | 0.00 | 89 | 1010.7 |
| 20260509052812 | 68 | 345 | 5.0 | 8.0 | 0.00 | 0.00 | 0.00 | 89 | 1010.7 |
| 20260509052311 | 69 | 23 | 5.0 | 8.0 | 0.00 | 0.00 | 0.00 | 89 | 1010.5 |
| 20260509051312 | 69 | 154 | 0.0 | 0.0 | 0.00 | 0.00 | 0.00 | 89 | 1009.9 |
| 20260509050819 | 69 | 154 | 0.0 | 0.0 | 0.00 | 0.00 | 0.00 | 89 | 1009.7 |
| 20260509050311 | 69 | 154 | 0.0 | 0.0 | 0.00 | 0.00 | 0.00 | 88 | 1009.5 |
| 20260509045811 | 69 | 154 | 0.0 | 0.0 | 0.00 | 0.00 | 0.00 | 88 | 1009.5 |
| 20260509045311 | 69 | 154 | 0.0 | 1.0 | 0.00 | 0.00 | 0.00 | 88 | 1009.4 |
| 20260509044812 | 69 | 154 | 1.0 | 2.0 | 0.00 | 0.00 | 0.00 | 88 | 1009.3 |
| 20260509044311 | 69 | 129 | 1.0 | 2.0 | 0.00 | 0.00 | 0.00 | 88 | 1009.3 |
| 20260509043811 | 70 | 95 | 0.0 | 1.0 | 0.00 | 0.00 | 0.00 | 88 | 1009.5 |
| 20260509043312 | 70 | 67 | 0.0 | 1.0 | 0.00 | 0.00 | 0.00 | 87 | 1009.5 |
| 20260509042812 | 70 | 79 | 1.0 | 2.0 | 0.00 | 0.00 | 0.00 | 87 | 1009.5 |
| 20260509042311 | 70 | 108 | 2.0 | 2.0 | 0.00 | 0.00 | 0.00 | 87 | 1009.3 |
| 20260509041811 | 70 | 90 | 1.0 | 2.0 | 0.00 | 0.00 | 0.00 | 87 | 1009.2 |
| 20260509040811 | 70 | 52 | 2.0 | 3.0 | 0.00 | 0.00 | 0.00 | 87 | 1009.5 |
| 20260509040311 | 70 | 49 | 1.0 | 3.0 | 0.00 | 0.00 | 0.00 | 86 | 1009.4 |
| 20260509035811 | 70 | 82 | 2.0 | 5.0 | 0.00 | 0.00 | 0.00 | 86 | 1009.2 |
| 20260509035312 | 70 | 75 | 1.0 | 2.0 | 0.00 | 0.00 | 0.00 | 86 | 1009.1 |
| 20260509034811 | 71 | 96 | 1.0 | 3.0 | 0.00 | 0.00 | 0.00 | 86 | 1008.9 |
| 20260509034311 | 71 | 134 | 2.0 | 3.0 | 0.00 | 0.00 | 0.00 | 86 | 1008.7 |
| 20260509033811 | 71 | 121 | 2.0 | 3.0 | 0.00 | 0.00 | 0.00 | 86 | 1008.7 |
| 20260509033311 | 71 | 118 | 0.0 | 3.0 | 0.00 | 0.00 | 0.00 | 86 | 1008.6 |
| 20260509032811 | 71 | 177 | 0.0 | 1.0 | 0.00 | 0.00 | 0.00 | 86 | 1008.5 |
| 20260509031311 | 71 | 156 | 6.0 | 8.0 | 0.00 | 0.00 | 0.00 | 85 | 1008.0 |
| 20260509030311 | 71 | 155 | 7.0 | 9.0 | 0.00 | 0.00 | 0.00 | 85 | 1007.8 |
| 20260509025311 | 71 | 137 | 7.0 | 12.0 | 0.00 | 0.00 | 0.00 | 85 | 1007.9 |
| 20260509024311 | 71 | 158 | 6.0 | 8.0 | 0.00 | 0.00 | 0.00 | 85 | 1007.4 |
| 20260509022812 | 71 | 139 | 5.0 | 9.0 | 0.00 | 0.00 | 0.00 | 84 | 1007.5 |
| 20260509022311 | 71 | 153 | 4.0 | 10.0 | 0.00 | 0.00 | 0.00 | 83 | 1007.4 |
| 20260509021812 | 72 | 157 | 5.0 | 8.0 | 0.00 | 0.00 | 0.00 | 83 | 1007.3 |
| 20260509021311 | 72 | 153 | 5.0 | 8.0 | 0.00 | 0.00 | 0.00 | 82 | 1007.3 |
| 20260509020811 | 72 | 161 | 3.0 | 6.0 | 0.00 | 0.00 | 0.00 | 82 | 1007.3 |
| 20260509020311 | 72 | 149 | 2.0 | 7.0 | 0.00 | 0.00 | 0.00 | 82 | 1007.4 |
| 20260509015811 | 72 | 140 | 5.0 | 8.0 | 0.00 | 0.00 | 0.00 | 82 | 1007.3 |
| 20260509015310 | 72 | 117 | 2.0 | 5.0 | 0.00 | 0.00 | 0.00 | 82 | 1007.4 |
| 20260509014812 | 72 | 170 | 3.0 | 5.0 | 0.00 | 0.00 | 0.00 | 82 | 1007.5 |
| 20260509014311 | 72 | 124 | 1.0 | 6.0 | 0.00 | 0.00 | 0.00 | 82 | 1007.5 |
| 20260509013811 | 72 | 141 | 1.0 | 3.0 | 0.00 | 0.00 | 0.00 | 81 | 1007.5 |
| 20260509013311 | 72 | 107 | 1.0 | 1.0 | 0.00 | 0.00 | 0.00 | 81 | 1007.6 |
| 20260509012811 | 72 | 148 | 1.0 | 3.0 | 0.00 | 0.00 | 0.00 | 81 | 1007.6 |
| 20260509011811 | 73 | 124 | 0.0 | 0.0 | 0.00 | 0.00 | 0.00 | 80 | 1007.7 |
| 20260509011311 | 73 | 124 | 0.0 | 0.0 | 0.00 | 0.00 | 0.00 | 80 | 1007.6 |
| 20260509010311 | 73 | 124 | 0.0 | 0.0 | 0.00 | 0.00 | 0.00 | 79 | 1007.5 |
| 20260509005811 | 73 | 159 | 0.0 | 0.0 | 0.00 | 0.00 | 0.00 | 79 | 1007.3 |
| 20260509005312 | 73 | 128 | 0.0 | 2.0 | 0.00 | 0.00 | 0.00 | 79 | 1007.2 |
| 20260509004812 | 73 | 178 | 2.0 | 3.0 | 0.00 | 0.00 | 0.00 | 78 | 1007.1 |
| 20260509004311 | 73 | 169 | 2.0 | 6.0 | 0.00 | 0.00 | 0.00 | 78 | 1007.0 |
| 20260509003811 | 74 | 142 | 4.0 | 7.0 | 0.00 | 0.00 | 0.00 | 77 | 1006.9 |
| 20260509003311 | 74 | 129 | 3.0 | 7.0 | 0.00 | 0.00 | 0.00 | 77 | 1007.0 |
| 20260509002811 | 74 | 153 | 4.0 | 8.0 | 0.00 | 0.00 | 0.00 | 77 | 1007.0 |
| 20260509001811 | 74 | 130 | 6.0 | 8.0 | 0.00 | 0.00 | 0.00 | 77 | 1007.0 |
| 20260509000811 | 74 | 144 | 3.0 | 10.0 | 0.00 | 0.00 | 0.00 | 78 | 1007.2 |
| 20260508235811 | 74 | 167 | 4.0 | 8.0 | 0.00 | 0.00 | 0.00 | 77 | 1007.4 |
| 20260508235311 | 74 | 171 | 7.0 | 8.0 | 0.00 | 0.00 | 0.00 | 77 | 1007.5 |
| 20260508234811 | 74 | 131 | 6.0 | 10.0 | 0.00 | 0.00 | 0.00 | 76 | 1007.5 |
| 20260508234311 | 74 | 163 | 9.0 | 10.0 | 0.00 | 0.00 | 0.00 | 76 | 1007.5 |
| 20260508233811 | 75 | 173 | 6.0 | 9.0 | 0.00 | 0.00 | 0.00 | 76 | 1007.5 |
| 20260508233310 | 75 | 185 | 6.0 | 10.0 | 0.00 | 0.00 | 0.00 | 75 | 1007.5 |
| 20260508232812 | 75 | 158 | 8.0 | 12.0 | 0.00 | 0.00 | 0.00 | 75 | 1007.6 |
| 20260508231810 | 75 | 164 | 4.0 | 9.0 | 0.00 | 0.00 | 0.00 | 75 | 1007.5 |
| 20260508230811 | 76 | 154 | 7.0 | 15.0 | 0.00 | 0.00 | 0.00 | 74 | 1007.3 |
| 20260508230311 | 76 | 172 | 8.0 | 13.0 | 0.00 | 0.00 | 0.00 | 75 | 1007.4 |
| 20260508225811 | 76 | 160 | 11.0 | 10.0 | 0.00 | 0.00 | 0.00 | 74 | 1007.5 |
| 20260508224812 | 76 | 141 | 7.0 | 10.0 | 0.00 | 0.00 | 0.00 | 74 | 1007.5 |
| 20260508224311 | 76 | 164 | 4.0 | 12.0 | 0.00 | 0.00 | 0.00 | 73 | 1007.5 |
| 20260508223811 | 76 | 160 | 6.0 | 10.0 | 0.00 | 0.00 | 0.00 | 73 | 1007.6 |
| 20260508222811 | 76 | 150 | 6.0 | 9.0 | 0.00 | 0.00 | 0.00 | 72 | 1007.6 |